This demonstration page uses our WeatherBlox Daily Observations layout. Learn more.

Left ArrowRight Arrow

Hourly Observations for November 10, 2019

Temp ( °F °C ) Dew Point ( °F °C ) Humidity (%) Winds ( mph kmh ) Pressure ( in mb ) Visibility ( mi km ) Precip ( " mm )
12:53 am 00:53 Clear with Light Rain 36 2.2 34 1.1 93 93 Calm 30.22 1023 7 11 0.00 0.00
1:53 am 01:53 Clear 35 1.7 33 0.6 93 93 Calm 30.21 1023 9 14 0.00 0.00
2:29 am 02:29 Clear with Mist and Fog 35 1.7 33 0.6 93 93 Calm 30.25 1024 3 5 0.00 0.00
2:53 am 02:53 Clear 36 2.2 34 1.1 93 93 Calm 30.21 1023 10 16 0.00 0.00
3:42 am 03:42 Clear with Light Rain 34 1.1 33 0.6 97 97 Calm 30.24 1024 2 2 0.00 0.00
3:53 am 03:53 Clear with Mist and Fog 34 1.1 32 0 92 92 Calm 30.21 1023 4 6 0.00 0.00
4:39 am 04:39 Clear with Light Rain 34 1.1 32 0 92 92 Calm 30.25 1024 2 3 0.00 0.00
4:48 am 04:48 Clear 34 1 30 -1 87 87 NNE 3 6 30.25 1024 10 16 0.00 0.00
4:53 am 04:53 Clear 33 0.6 31 -0.6 92 92 Calm 30.22 1023 10 16 0.00 0.00
5:53 am 05:53 Clear 33 0.6 32 0 96 96 Calm 30.22 1024 10 16 0.00 0.00
6:53 am 06:53 Clear 34 1.1 32 0 92 92 Calm 30.24 1024 9 14 0.00 0.00
7:42 am 07:42 Sunny with Mist and Fog 34 1.1 33 0.6 97 97 Calm 30.28 1025 3 4 0.00 0.00
7:50 am 07:50 Sunny 36 2 34 1 93 93 Calm 30.28 1025 10 16 0.00 0.00
7:53 am 07:53 Sunny 35 1.7 34 1.1 96 96 Calm 30.25 1024 10 16 0.00 0.00
8:53 am 08:53 Sunny 41 5 37 2.8 86 86 Calm 30.26 1025 10 16 0.00 0.00
9:53 am 09:53 Sunny 48 8.9 38 3.3 68 68 SSW 7 11 30.25 1024 10 16 0.00 0.00
10:53 am 10:53 Sunny 54 12.2 39 3.9 57 57 S 7 11 30.24 1024 10 16 0.00 0.00
11:53 am 11:53 Sunny 59 15 41 5 51 51 S 5 7 30.22 1023 10 16 0.00 0.00
2:53 pm 14:53 Sunny 65 18.3 38 3.3 37 37 W 6 9 30.13 1020 10 16 0.00 0.00
3:53 pm 15:53 Sunny 65 18.3 36 2.2 34 34 WSW 7 11 30.13 1020 10 16 0.00 0.00
4:53 pm 16:53 Sunny 64 17.8 36 2.2 35 35 SW 5 7 30.13 1020 10 16 0.00 0.00
5:53 pm 17:53 Clear 58 14.4 42 5.6 56 56 SSE 3 6 30.13 1020 10 16 0.00 0.00
6:53 pm 18:53 Clear 51 10.6 44 6.7 77 77 Calm 30.14 1021 10 16 0.00 0.00
7:53 pm 19:53 Clear 48 8.9 43 6.1 83 83 Calm 30.16 1021 10 16 0.00 0.00
8:53 pm 20:53 Clear 46 7.8 43 6.1 89 89 Calm 30.15 1021 10 16 0.00 0.00
9:53 pm 21:53 Clear 45 7.2 42 5.6 90 90 Calm 30.16 1021 10 16 0.00 0.00
10:53 pm 22:53 Clear 43 6.1 41 5 93 93 Calm 30.15 1021 10 16 0.00 0.00
11:53 pm 23:53 Clear 43 6.1 41 5 93 93 Calm 30.15 1021 10 16 0.00 0.00

Powered by AerisWeather